When you browse on this site, cookies collect data to enhance your experience and personalize the content and advertising you see.
Visit our Privacy Policy to learn more. By continuing to use the site, you agree to this use of cookies and data.
  • En España
  • Lista de países
  • Para 7 días
  • Temperatura del agua
  • Mapa Satelital
  • El tiempo en el mapa
  • Informadores
  • user-avatar
    Iniciar sesión

    Tiempo cada hora Kalian

    Hoy, 22 Febrero, Viernes

    Tiempo Temperatura Precipitaciones Viento Presión Humedad
    00:00 +25°C° 0 mm 0 mps 760 mmHg 58%
    01:00 +27°C° 0 mm 1 mps 760 mmHg 59%
    02:00 +27°C° 0 mm 1 mps 760 mmHg 60%
    03:00 +26°C° 0 mm 1 mps 759 mmHg 61%
    04:00 +26°C° 0 mm 1 mps 759 mmHg 61%
    05:00 +25°C° 0 mm 1 mps 759 mmHg 62%
    06:00 +26°C° 0 mm 1 mps 760 mmHg 59%
    07:00 +25°C° 0 mm 0 mps 760 mmHg 55%
    08:00 +26°C° 0 mm 0 mps 760 mmHg 52%
    09:00 +31°C° 0 mm 1 mps 760 mmHg 43%
    10:00 +33°C° 0 mm 1 mps 760 mmHg 34%
    11:00 +36°C° 0 mm 1 mps 760 mmHg 26%
    12:00 +38°C° 0 mm 2 mps 759 mmHg 23%
    13:00 +40°C° 0 mm 2 mps 759 mmHg 21%
    14:00 +42°C° 0 mm 3 mps 758 mmHg 19%
    15:00 +40°C° 0 mm 3 mps 758 mmHg 20%
    16:00 +39°C° 0 mm 3 mps 757 mmHg 21%
    17:00 +40°C° 0 mm 4 mps 757 mmHg 22%
    18:00 +37°C° 0 mm 3 mps 757 mmHg 26%
    19:00 +35°C° 0 mm 2 mps 758 mmHg 31%
    20:00 +32°C° 0 mm 1 mps 758 mmHg 35%
    21:00 +31°C° 0 mm 1 mps 758 mmHg 36%
    22:00 +30°C° 0 mm 1 mps 759 mmHg 37%
    23:00 +30°C° 0 mm 1 mps 759 mmHg 39%

    Mañana, 23 Febrero, Sábado

    Tiempo Temperatura Precipitaciones Viento Presión Humedad
    00:00 +29°C° 0 mm 1 mps 758 mmHg 39%
    01:00 +29°C° 0 mm 1 mps 758 mmHg 39%
    02:00 +29°C° 0 mm 1 mps 758 mmHg 39%
    03:00 +28°C° 0 mm 1 mps 757 mmHg 39%
    04:00 +28°C° 0 mm 1 mps 757 mmHg 39%
    05:00 +27°C° 0 mm 1 mps 757 mmHg 39%
    06:00 +28°C° 0 mm 1 mps 757 mmHg 37%
    07:00 +29°C° 0 mm 1 mps 758 mmHg 35%
    08:00 +30°C° 0 mm 1 mps 758 mmHg 33%
    09:00 +33°C° 0 mm 1 mps 758 mmHg 28%
    10:00 +36°C° 0 mm 1 mps 758 mmHg 23%
    11:00 +40°C° 0 mm 1 mps 758 mmHg 18%
    12:00 +41°C° 0 mm 1 mps 758 mmHg 17%
    13:00 +42°C° 0 mm 1 mps 757 mmHg 16%
    14:00 +42°C° 0 mm 2 mps 756 mmHg 15%
    15:00 +42°C° 0 mm 3 mps 756 mmHg 16%
    16:00 +41°C° 0 mm 4 mps 755 mmHg 17%
    17:00 +40°C° 0 mm 5 mps 755 mmHg 18%
    18:00 +37°C° 0 mm 4 mps 756 mmHg 21%
    19:00 +35°C° 0 mm 2 mps 756 mmHg 23%
    20:00 +32°C° 0 mm 1 mps 757 mmHg 26%
    21:00 +32°C° 0 mm 1 mps 757 mmHg 27%
    22:00 +31°C° 0 mm 1 mps 757 mmHg 27%
    23:00 +30°C° 0 mm 1 mps 757 mmHg 28%

    Pasado mañana, 24 Febrero, Domingo

    Tiempo Temperatura Precipitaciones Viento Presión Humedad
    00:00 +29°C° 0 mm 1 mps 757 mmHg 29%
    01:00 +29°C° 0 mm 1 mps 756 mmHg 30%
    02:00 +28°C° 0 mm 1 mps 756 mmHg 31%
    03:00 +28°C° 0 mm 1 mps 756 mmHg 32%
    04:00 +27°C° 0 mm 1 mps 755 mmHg 32%
    05:00 +27°C° 0 mm 1 mps 755 mmHg 33%
    06:00 +27°C° 0 mm 1 mps 756 mmHg 32%
    07:00 +28°C° 0 mm 1 mps 756 mmHg 32%
    08:00 +29°C° 0 mm 1 mps 757 mmHg 31%
    09:00 +31°C° 0 mm 1 mps 757 mmHg 26%
    10:00 +34°C° 0 mm 1 mps 757 mmHg 22%
    11:00 +37°C° 0 mm 1 mps 757 mmHg 17%
    12:00 +39°C° 0 mm 1 mps 756 mmHg 15%
    13:00 +40°C° 0 mm 2 mps 755 mmHg 14%
    14:00 +42°C° 0 mm 3 mps 755 mmHg 12%
    15:00 +40°C° 0 mm 3 mps 754 mmHg 14%
    16:00 +39°C° 0 mm 3 mps 754 mmHg 15%
    17:00 +38°C° 0 mm 4 mps 754 mmHg 17%
    18:00 +36°C° 0 mm 3 mps 755 mmHg 20%
    19:00 +34°C° 0 mm 2 mps 755 mmHg 23%
    20:00 +31°C° 0 mm 1 mps 756 mmHg 27%
    21:00 +30°C° 0 mm 1 mps 756 mmHg 28%
    22:00 +30°C° 0 mm 1 mps 757 mmHg 30%
    23:00 +29°C° 0 mm 1 mps 757 mmHg 31%

    25 Febrero, Lunes

    Tiempo Temperatura Precipitaciones Viento Presión Humedad
    00:00 +28°C° 0 mm 1 mps 756 mmHg 33%
    01:00 +28°C° 0 mm 1 mps 756 mmHg 34%
    02:00 +27°C° 0 mm 1 mps 755 mmHg 36%
    03:00 +27°C° 0 mm 1 mps 755 mmHg 37%
    04:00 +26°C° 0 mm 1 mps 755 mmHg 38%
    05:00 +26°C° 0 mm 1 mps 755 mmHg 39%
    06:00 +26°C° 0 mm 1 mps 756 mmHg 37%
    07:00 +25°C° 0 mm 0 mps 757 mmHg 35%
    08:00 +26°C° 0 mm 0 mps 757 mmHg 32%
    09:00 +30°C° 0 mm 1 mps 757 mmHg 27%
    10:00 +33°C° 0 mm 1 mps 757 mmHg 22%
    11:00 +36°C° 0 mm 2 mps 757 mmHg 17%
    12:00 +37°C° 0 mm 2 mps 756 mmHg 16%
    13:00 +39°C° 0 mm 3 mps 755 mmHg 14%
    14:00 +40°C° 0 mm 3 mps 754 mmHg 12%
    15:00 +39°C° 0 mm 3 mps 754 mmHg 13%
    16:00 +38°C° 0 mm 4 mps 754 mmHg 14%
    17:00 +37°C° 0 mm 4 mps 754 mmHg 14%
    18:00 +35°C° 0 mm 3 mps 755 mmHg 17%
    19:00 +32°C° 0 mm 2 mps 755 mmHg 19%
    20:00 +30°C° 0 mm 1 mps 756 mmHg 21%
    21:00 +29°C° 0 mm 1 mps 756 mmHg 23%
    22:00 +29°C° 0 mm 1 mps 756 mmHg 24%
    23:00 +28°C° 0 mm 1 mps 756 mmHg 26%

    26 Febrero, Martes

    Tiempo Temperatura Precipitaciones Viento Presión Humedad
    00:00 +27°C° 0 mm 1 mps 756 mmHg 29%
    01:00 +27°C° 0 mm 1 mps 756 mmHg 32%
    02:00 +26°C° 0 mm 1 mps 755 mmHg 35%
    03:00 +26°C° 0 mm 1 mps 755 mmHg 38%
    04:00 +25°C° 0 mm 1 mps 755 mmHg 41%
    05:00 +23°C° 0 mm 0 mps 755 mmHg 45%
    06:00 +25°C° 0 mm 1 mps 756 mmHg 45%
    07:00 +26°C° 0 mm 1 mps 756 mmHg 45%
    08:00 +27°C° 0 mm 1 mps 757 mmHg 45%
    09:00 +28°C° 0 mm 1 mps 757 mmHg 42%
    10:00 +30°C° 0 mm 2 mps 757 mmHg 38%
    11:00 +32°C° 0 mm 2 mps 757 mmHg 35%
    12:00 +33°C° 0 mm 3 mps 756 mmHg 32%
    13:00 +34°C° 0 mm 4 mps 756 mmHg 29%
    14:00 +35°C° 0 mm 5 mps 755 mmHg 26%
    15:00 +34°C° 0 mm 5 mps 755 mmHg 29%
    16:00 +33°C° 0 mm 5 mps 755 mmHg 33%
    17:00 +32°C° 0 mm 5 mps 754 mmHg 37%
    18:00 +30°C° 0 mm 4 mps 755 mmHg 44%
    19:00 +28°C° 0 mm 3 mps 755 mmHg 51%
    20:00 +27°C° 0 mm 2 mps 756 mmHg 59%
    21:00 +27°C° 0 mm 2 mps 756 mmHg 62%
    22:00 +26°C° 0 mm 2 mps 756 mmHg 65%
    23:00 +26°C° 0 mm 2 mps 756 mmHg 68%

    27 Febrero, Miércoles

    Tiempo Temperatura Precipitaciones Viento Presión Humedad
    00:00 +26°C° 0.1 mm 2 mps 756 mmHg 71%
    01:00 +25°C° 0.1 mm 2 mps 755 mmHg 73%
    02:00 +25°C° 0.1 mm 2 mps 755 mmHg 75%
    03:00 +25°C° 0.2 mm 2 mps 755 mmHg 75%
    04:00 +25°C° 0.2 mm 2 mps 755 mmHg 75%
    05:00 +24°C° 0.2 mm 2 mps 755 mmHg 75%
    06:00 +25°C° 0 mm 2 mps 756 mmHg 70%
    07:00 +25°C° 0 mm 2 mps 757 mmHg 66%
    08:00 +25°C° 0 mm 2 mps 758 mmHg 61%
    09:00 +27°C° 0 mm 2 mps 758 mmHg 51%
    10:00 +28°C° 0 mm 2 mps 758 mmHg 41%
    11:00 +30°C° 0 mm 2 mps 758 mmHg 31%
    12:00 +31°C° 0 mm 3 mps 757 mmHg 26%
    13:00 +33°C° 0 mm 3 mps 757 mmHg 21%
    14:00 +34°C° 0 mm 4 mps 756 mmHg 16%
    15:00 +33°C° 0 mm 4 mps 756 mmHg 17%
    16:00 +33°C° 0 mm 4 mps 756 mmHg 18%
    17:00 +32°C° 0 mm 4 mps 756 mmHg 19%
    18:00 +29°C° 0 mm 3 mps 756 mmHg 22%
    19:00 +28°C° 0 mm 2 mps 757 mmHg 26%
    20:00 +26°C° 0 mm 1 mps 757 mmHg 29%
    21:00 +25°C° 0 mm 1 mps 757 mmHg 31%
    22:00 +25°C° 0 mm 1 mps 758 mmHg 32%
    23:00 +24°C° 0 mm 1 mps 758 mmHg 34%
    Mostrar más